Location: Banff
(51.1667°N, 115.5667°W)
Time: 23:19:30
(UTC+00:00)

Tiros 1 despin weight - Visible Passes

Search period start: 25 November 2020 00:00
Search period end: 05 December 2020 00:00
Orbit: 593 x 642 km, 48.2° (Epoch: 25 November)

Date Brightness Start Highest point End Pass type
(mag) Time Alt. Az. Time Alt. Az. Time Alt. Az.
25 Nov ? 00:41:29 10° W 00:46:06 59° S 00:50:39 10° ESE visible
25 Nov ? 02:23:05 10° W 02:27:14 32° SSW 02:28:13 29° S visible
26 Nov ? 00:57:53 10° W 01:02:26 50° SSW 01:06:55 10° ESE visible
26 Nov ? 02:39:46 10° W 02:43:22 22° SSW 02:44:17 21° SSW visible
27 Nov ? 01:14:20 10° W 01:18:41 39° SSW 01:23:00 10° SE visible
27 Nov ? 02:56:56 10° WSW 02:59:22 14° SW 03:00:30 13° SSW visible
28 Nov ? 01:30:52 10° W 01:34:52 28° SSW 01:38:49 10° SSE visible
29 Nov ? 01:47:41 10° W 01:50:57 19° SW 01:54:10 10° S visible
30 Nov ? 00:22:04 10° W 00:26:19 35° SSW 00:30:32 10° SE visible
30 Nov ? 02:05:25 10° WSW 02:06:55 11° SW 02:08:24 10° SSW visible
01 Dec ? 00:38:41 10° W 00:42:28 24° SSW 00:46:12 10° SSE visible
02 Dec ? 00:55:44 10° WSW 00:58:30 16° SW 01:01:15 10° S visible
